Location: Arcizac
(43.0933°N, 0.0112°E)
Time: 18:46:16
(UTC+00:00)

Aureole 1 Rocket - Pass Details

Date: 14 December 2019
Orbit: 378 x 1382 km, 73.9° (Epoch: 26 January)

Event Time Altitude Azimuth Distance (km) Brightness Sun altitude
Rises 16:52:33 0° 189° (S) 2,234 6.5 -5.2°
Reaches altitude 10° 16:54:29 10° 184° (S) 1,392 5.4 -5.5°
Maximum altitude 16:57:22 53° 107° (ESE) 497 2.4 -5.9°
Drops below altitude 10° 17:00:35 10° 29° (NNE) 1,554 4.6 -6.5°
Enters shadow 17:02:05 - 26° (NNE) 2,201 5.4 -6.7°
